Location: Trout Lake
(45.9980°N, 121.5270°W)
Time: 07:34:18
(UTC-07:00)

Daily predictions for brighter satellites

Satellite Brightness Start Highest point End
(mag) Time Altitude Azimuth Time Altitude Azimuth Time Altitude Azimuth
Envisat 3.6 21:14:55 10° S 21:19:56 59° W 21:24:58 10° NNW
SAR-Lupe-4 3.8 21:17:27 10° SSE 21:20:57 55° ENE 21:24:28 10° N
NOSS 3-2 (C) 3.5 21:16:08 10° SSW 21:22:08 76° SE 21:28:48 10° NE
Cosmos 1898 Rocket 4.1 21:18:02 10° SSW 21:23:17 64° WNW 21:28:36 10° NNE
Cosmos 990 Rocket 4.0 21:20:35 10° SSW 21:25:48 88° ESE 21:31:05 10° NNE
YAOGAN 6 2.7 21:23:34 10° S 21:27:16 83° WSW 21:30:59 10° NNW
Tiangong 2 2.6 21:24:39 10° WSW 21:27:20 24° SSW 21:30:01 10° SE
USA 186 4.2 21:25:41 10° SW 21:27:41 19° W 21:29:48 10° NW
Cosmos 1869 Rocket 3.8 21:27:12 10° SSE 21:31:22 48° E 21:35:35 10° NNE
Terra 3.8 21:29:55 10° E 21:32:34 15° ENE 21:35:13 10° NNE
Cosmos 1125 Rocket 4.2 21:28:55 10° SSE 21:33:35 34° ESE 21:38:16 10° NE
ATLAS 5 CENTAUR R/B 2.8 21:29:07 10° NNW 21:34:49 52° NE 21:41:01 10° ESE
GPS 2-04 Rocket1 4.3 21:35:25 10° SW 21:37:45 16° S 21:39:43 11° SE
CENTAUR R/B 3.0 21:34:28 10° S 21:39:58 38° ESE 21:46:10 10° NE
Cosmos 2221 Rocket 3.6 21:36:05 10° N 21:40:31 69° E 21:44:57 10° SSE
Cosmos 1782 3.0 21:37:41 10° N 21:41:38 56° ENE 21:45:33 10° SSE
Cosmos 2084 3.3 21:38:13 10° NW 21:42:02 71° SW 21:45:41 12° SSE
SAR-Lupe-1 4.0 21:38:49 10° SSE 21:42:22 86° ENE 21:45:58 10° NNW
Helios 1B rocket 2.5 21:38:54 10° NNE 21:43:02 81° WNW 21:47:08 10° SSW
SPOT 5 3.5 21:38:02 10° SE 21:43:09 48° ENE 21:48:14 10° N
MetOp-B 4.2 21:38:27 10° SSE 21:43:45 66° ENE 21:49:04 10° N
CZ-4B DEB 3.3 21:42:44 10° S 21:45:35 50° W 21:48:28 10° NNW
Aureole 3 2.6 21:45:55 10° S 21:48:55 59° E 21:51:52 10° NNE
Meteor 1-29 3.3 21:49:29 10° N 21:52:59 71° WNW 21:56:27 10° SSW
ARGOS 3.2 21:47:52 10° SSE 21:53:10 67° ENE 21:58:30 10° N
Lacrosse 4 Rocket 2.1 21:49:13 10° NNW 21:53:35 47° NE 21:57:04 15° SE
Meteor 2-3 Rocket 4.2 21:47:55 10° SSW 21:53:36 64° WNW 21:59:14 10° N
Cosmos 1408 2.7 21:51:23 10° S 21:55:00 55° E 21:58:41 10° NNE
Milstar 3 4.4 21:49:34 10° SW 21:56:58 20° S 22:01:06 14° SE
Shenzhou-11 Module 4.3 21:55:48 10° WSW 21:57:28 14° SSW 21:58:54 11° S
H-2A R/B 2.5 21:53:53 13° SE 21:58:30 51° ENE 22:03:38 10° N
Cosmos 1825 2.2 21:55:49 10° S 21:59:31 58° E 22:03:15 10° NNE
Cosmos 1634 Rocket 4.5 21:55:36 10° NNW 22:01:49 63° W 22:08:01 10° S
Cosmos 1862 3.9 22:00:07 15° SSE 22:02:58 37° E 22:06:39 10° NNE
Cosmos 158 Rocket 3.8 22:06:22 10° NNW 22:11:17 86° WSW 22:15:07 17° SSE
YAOGAN 11 4.2 22:07:56 15° SSE 22:11:38 78° ENE 22:16:10 10° N
Cosmos 2227 Rocket 4.4 22:13:02 10° N 22:16:13 15° NE 22:19:24 10° ENE
H-2A R/B 3.7 22:14:15 14° E 22:16:20 20° ENE 22:19:23 10° NNE
Nadezhda 4 Rocket 4.3 22:12:25 14° SSE 22:17:33 49° E 22:23:27 10° NNE
Cosmos 2219 4.3 22:16:23 10° NNW 22:21:36 34° NE 22:25:31 16° ESE
Gbstr 26 Del rocket 4.3 22:22:05 10° WNW 22:26:34 39° N 22:30:23 10° ENE
ERS-1 Rocket 4.1 22:24:07 10° SSW 22:28:50 41° W 22:33:36 10° NNW
Molniya-1 4.0 22:28:36 10° WSW 22:30:06 30° NW 22:31:33 10° NNE
Okean 3 4.4 22:26:40 10° N 22:30:26 32° ENE 22:32:06 24° ESE
Cosmos 1048 Rocket 4.4 22:27:16 10° NNW 22:32:31 60° WSW 22:36:25 18° S
Cosmos 1340 3.2 22:29:25 10° NNW 22:33:09 57° W 22:35:40 19° S
H-2A ROCKET BODY 4.3 22:31:03 10° SSW 22:32:02 12° S 22:32:02 12° S
COSMOS 2455 3.6 22:29:16 10° SW 22:35:11 57° NW 22:41:08 10° NNE
IGS 5A 3.9 22:34:56 27° SE 22:36:48 46° ENE 22:40:48 10° N
Cosmos 1943 Rocket 2.2 22:31:17 10° SSW 22:36:53 87° WNW 22:42:28 10° NNE
Cosmos 405 Rocket 4.4 22:37:32 10° NNE 22:40:13 19° ENE 22:41:05 17° E
Lacrosse 5 rocket 1.4 22:38:47 10° WSW 22:42:21 66° NW 22:46:03 10° NE
DMSP B5D2-2 4.1 22:38:17 10° NNE 22:43:29 63° ESE 22:46:54 21° S
Cosmos 1606 4.4 22:41:05 10° NNW 22:44:22 28° W 22:47:33 10° SSW
ISS -3.4 22:47:48 10° WSW 22:51:01 62° NNW 22:54:16 10° ENE
Cosmos 2251 Rocket 3.7 22:47:00 10° NNW 22:52:12 60° ENE 22:54:42 30° SE
deb Chang Zheng 4 4.5 22:50:18 10° NE 22:54:16 31° E 22:54:58 29° ESE
Landsat 7 3.9 22:51:55 27° S 22:54:33 77° WSW 22:59:20 10° NNW
Cosmos 2369 Rocket 3.6 22:50:11 10° SW 22:55:29 40° NW 23:00:51 10° NNE
SPOT 1/Viking Rocket 4.1 22:53:09 19° S 22:56:42 54° W 23:01:50 10° NNW
USA 215 4.1 22:54:18 21° S 22:58:07 39° SW 23:04:11 10° WNW
Cosmos 1437 2.6 22:59:29 10° N 23:02:43 87° E 23:03:08 65° SSE
GEOS 3 Rocket 3.6 23:00:20 31° SSE 23:02:50 73° SW 23:08:06 10° NW
Cosmos 1733 Rocket 3.4 23:00:00 19° SSW 23:02:59 62° W 23:07:18 10° N
Cosmos 1346 2.9 23:00:42 10° N 23:03:11 68° NNE 23:03:11 68° NNE
Cosmos 1782 Rocket 4.3 23:03:36 33° ESE 23:04:20 35° E 23:08:20 10° NNE
Cosmos 2344 3.6 22:57:25 10° SSW 23:05:04 85° SE 23:13:52 10° NE
Sich 1 Rocket 3.7 23:05:22 40° SSE 23:06:44 58° E 23:11:05 10° NNE
Terra 1.8 23:07:35 33° S 23:09:42 78° WSW 23:14:29 10° NNW
ARGOS Delta rocket 4.3 23:06:35 10° NNE 23:10:46 36° E 23:11:21 34° ESE
Cosmos 2297 Rocket 3.7 23:06:54 10° N 23:11:40 27° NE 23:15:01 16° E
Cosmos 1655 Rocket 4.4 23:14:13 32° SE 23:16:35 46° E 23:22:29 10° NNE
ATLAS 5 CENTAUR R/B 3.4 23:14:01 10° NW 23:19:29 37° WSW 23:22:34 24° SSW
Cosmos 1975 Rocket 3.2 23:19:39 10° N 23:24:05 62° E 23:25:05 48° SE
ALOS 2 4.3 23:26:39 19° E 23:27:49 21° ENE 23:31:09 10° NNE
CZ-4C R/B 4.4 23:23:16 10° NNW 23:28:54 27° NNE 23:35:06 10° E
CENTAUR R/B 3.5 23:24:23 10° WSW 23:30:26 51° NW 23:37:23 10° NE
Lacrosse 4 Rocket 3.3 23:28:34 10° WNW 23:32:01 22° WSW 23:33:24 19° SW
Cosmos 1867 3.8 23:27:08 10° NW 23:32:31 61° WSW 23:34:15 41° S
Cosmos 2026 Rocket 3.9 23:33:38 34° S 23:36:28 83° E 23:42:46 10° N
Cosmos 1656 Rocket 4.0 23:32:38 14° SW 23:37:21 65° WNW 23:42:52 10° NNE
H-2A R/B 3.9 23:34:31 13° SW 23:38:08 25° W 23:42:28 10° NW
Meteor 1-20 Rocket 4.3 23:36:43 41° SSE 23:38:41 67° E 23:44:20 10° NNE
Cosmos 1378 Rocket 4.1 23:34:34 10° NNW 23:38:53 52° W 23:40:10 38° SW
CZ-4 R/B 3.7 23:36:16 10° NNE 23:40:56 90° NE 23:42:17 47° SSW
Spot 4 3.9 23:40:29 47° S 23:41:50 75° WSW 23:46:41 10° NNW
Meteor 1-25 Rocket 4.2 23:39:55 40° S 23:42:07 79° E 23:47:59 10° NNE
CZ-2C R/B 3.6 23:41:46 35° ESE 23:43:11 44° ENE 23:47:51 10° N
ATLAS CENTAUR R/B 1.3 23:45:26 61° E 23:45:26 61° E 23:48:50 10° NE
Cosmos 1536 Rocket 4.4 23:43:33 10° N 23:47:37 35° ENE 23:48:06 34° E
Cosmos 1417 Rocket 4.4 23:41:34 10° N 23:47:51 87° E 23:50:15 41° S
H-2A R/B 2.8 23:51:22 36° SW 23:52:06 40° W 23:56:00 10° NNW
Cosmos 1812 3.3 23:52:21 10° NNW 23:56:05 46° W 23:56:25 45° WSW
